User: anonymous   Login
Location: Unspecified
(0.0000°N, 0.0000°E)
Time: 10:14:53
(UTC+00:00)
Language:

Meteosat 2 - Orbit

View from above orbital plane
View from above orbital plane
View from above satellite
View from above satellite

Ground track
Ground track

The orbit data is extracted from the following two-line orbital elements,

1 12544U 81057A   19081.33510723 -.00000038  00000-0  00000+0 0  9991
2 12544  14.4023 341.0703 0034961 319.5244 217.1644  0.98723892 97785
Epoch (UTC): 22 March 2019 08:02:33
Eccentricity: 0.0034961
inclination: 14.4023°
perigee height: 36077 km
apogee height: 36375 km
right ascension of ascending node: 341.0703°
argument of perigee: 319.5244°
revolutions per day: 0.98723892
mean anomaly at epoch: 217.1644°
orbit number at epoch: 9778

The dashed part of the orbit path shows where the satellite is in the earth's shadow,  

DLR